This demonstration page uses our WeatherBlox Daily Observations layout. Learn more.

38.89511, -77.03637

Hourly Observations for June 27, 2015

Temp ( °F °C ) Dew Point ( °F °C ) Humidity (%) Winds ( mph kmh ) Pressure ( in mb ) Visibility ( mi km ) Precip ( " mm )
12:52 am 00:52 Cloudy 73 23 68 20 83 83 E 3 6 30.03 1017 10 16.09344 0 0
1:52 am 01:52 Cloudy 73 23 64 18 74 74 ESE 7 11 30.03 1017 10 16.09344 0 0
2:11 am 02:11 Cloudy with Light Rain 73 23 63 17 69 69 ESE 8 13 30.03 1017 10 16.09344 0.001 0.001
2:52 am 02:52 Cloudy with Light Rain 73 23 63 17 69 69 SE 6 9 30.03 1017 10 16.09344 0.001 0.001
3:52 am 03:52 Cloudy 73 23 64 18 74 74 ESE 12 19 30 1016 10 16.09344 0.001 0.001
4:52 am 04:52 Cloudy with Light Rain 72 22 64 18 78 78 ESE 6 9 30 1016 10 16.09344 0.001 0.001
5:22 am 05:22 Cloudy with Rain 72 22 66 19 83 83 SSE 7 11 30.03 1017 6 9.656064 0 0
5:52 am 05:52 Cloudy with Light Rain 72 22 66 19 83 83 ESE 10 17 30.03 1017 7 11.265408 0.07 1.778
6:05 am 06:05 Cloudy with Rain 72 22 66 19 83 83 E 12 19 30.03 1017 4 6.437376 0.03 0.762
6:42 am 06:42 Cloudy with Light Rain 70 21 63 17 78 78 E 15 24 30 1016 10 16.09344 0 0
6:52 am 06:52 Cloudy with Light Rain 70 21 63 17 78 78 E 15 24 30 1016 7 11.265408 0.11 2.794
7:52 am 07:52 Cloudy with Light Rain 70 21 64 18 83 83 NE 7 11 30 1016 7 11.265408 0.02 0.508
7:56 am 07:56 Cloudy with Rain 70 21 64 18 83 83 NE 9 15 30 1016 5 8.04672 0.001 0.001
8:08 am 08:08 Cloudy with Heavy Rain 70 21 64 18 83 83 ENE 9 15 30 1016 2.5 4.02336 0 0
8:28 am 08:28 Cloudy with Rain 70 21 64 18 83 83 NE 12 19 30 1016 3 4.828032 0 0
8:31 am 08:31 Cloudy with Rain 70 21 64 18 83 83 NE 10 17 30 1016 3 4.828032 0.12 3.048
8:36 am 08:36 Cloudy with Heavy Rain 70 21 64 18 83 83 ENE 8 13 30 1016 1.75 2.816352 0 0
8:44 am 08:44 Cloudy with Rain 70 21 64 18 83 83 E 20 31 30 1016 1.5 2.414016 0 0
8:47 am 08:47 Cloudy with Rain 70 21 63 17 78 78 ENE 15 24 30 1016 2.5 4.02336 0.26 6.604
8:52 am 08:52 Cloudy with Rain 70 21 64 18 83 83 ENE 14 22 30 1016 3 4.828032 0.28 7.112
8:54 am 08:54 Cloudy with Rain 70 21 64 18 83 83 ENE 13 20 30 1016 3 4.828032 0.001 0.001
9:22 am 09:22 Cloudy with Light Rain 70 21 64 18 83 83 NE 10 17 29.97 1015 5 8.04672 0 0
9:52 am 09:52 Cloudy with Light Rain 72 22 64 18 78 78 E 13 20 29.94 1014 8 12.874752 0.09 2.286
10:01 am 10:01 Cloudy with Light Rain 72 22 64 18 78 78 E 14 22 29.94 1014 9 14.484096 0.001 0.001
10:52 am 10:52 Cloudy 72 22 66 19 83 83 E 15 24 29.94 1014 10 16.09344 0.01 0.254
11:00 am 11:00 Cloudy 73 23 68 20 83 83 ESE 14 22 29.94 1014 10 16.09344 0 0
11:30 am 11:30 Cloudy with Light Rain 73 23 68 20 83 83 ESE 16 26 29.94 1014 9 14.484096 0 0
11:44 am 11:44 Cloudy with Light Rain 73 23 68 20 83 83 ESE 16 26 29.91 1013 6 9.656064 0 0
11:52 am 11:52 Cloudy with Light Rain 73 23 68 20 83 83 ESE 16 26 29.91 1013 7 11.265408 0.001 0.001
12:05 pm 12:05 Cloudy with Light Drizzle 73 23 68 20 83 83 ESE 14 22 29.91 1013 6 9.656064 0.001 0.001
12:10 pm 12:10 Cloudy 73 23 68 20 83 83 SE 12 19 29.91 1013 7 11.265408 0 0
12:20 pm 12:20 Cloudy with Light Rain 73 23 68 20 83 83 ESE 16 26 29.91 1013 6 9.656064 0 0
12:40 pm 12:40 Cloudy with Light Rain 73 23 70 21 89 89 SE 14 22 29.88 1012 7 11.265408 0 0
12:42 pm 12:42 Cloudy 73 23 70 21 89 89 SE 15 24 29.88 1012 9 14.484096 0 0
12:44 pm 12:44 Cloudy 73 23 70 21 89 89 SE 15 24 29.88 1012 10 16.09344 0 0
12:52 pm 12:52 Cloudy 73 23 70 21 89 89 ESE 15 24 29.88 1012 10 16.09344 0.01 0.254
12:58 pm 12:58 Cloudy 73 23 70 21 89 89 ESE 13 20 29.88 1012 10 16.09344 0 0
1:09 pm 13:09 Cloudy with Light Rain 73 23 70 21 89 89 ESE 14 22 29.88 1012 10 16.09344 0.001 0.001
1:11 pm 13:11 Cloudy with Light Rain 73 23 70 21 89 89 ESE 13 20 29.88 1012 10 16.09344 0.001 0.001
1:14 pm 13:14 Cloudy 73 23 70 21 89 89 ESE 13 20 29.88 1012 10 16.09344 0.001 0.001
1:21 pm 13:21 Cloudy with Light Rain 73 23 70 21 89 89 SE 13 20 29.88 1012 8 12.874752 0.001 0.001
1:42 pm 13:42 Cloudy with Heavy Rain 73 23 70 21 89 89 SE 16 26 29.88 1012 2.5 4.02336 0 0
1:45 pm 13:45 Cloudy with Heavy Rain 73 23 70 21 89 89 SE 13 20 29.85 1011 1.75 2.816352 0.07 1.778
1:52 pm 13:52 Cloudy with Heavy Rain 73 23 70 21 89 89 SE 15 24 29.85 1011 1 1.609344 0.2 5.08
2:00 pm 14:00 Cloudy with Heavy Rain 73 23 70 21 89 89 ESE 15 24 29.85 1011 2 3.218688 0 0
2:04 pm 14:04 Cloudy with Heavy Rain 73 23 70 21 89 89 SE 14 22 29.85 1011 1.75 2.816352 0 0
2:08 pm 14:08 Cloudy with Heavy Rain 73 23 70 21 89 89 SE 13 20 29.85 1011 1.5 2.414016 0 0
2:13 pm 14:13 Cloudy with Rain 73 23 70 21 89 89 SE 13 20 29.83 1010 2 3.218688 0.16 4.064
2:15 pm 14:15 Cloudy with Rain 73 23 70 21 89 89 SE 13 20 29.83 1010 2.5 4.02336 0.17 4.318
2:17 pm 14:17 Cloudy with Rain 73 23 70 21 89 89 SE 14 22 29.83 1010 3 4.828032 0.17 4.318
2:19 pm 14:19 Cloudy with Light Rain 75 24 70 21 83 83 SE 13 20 29.83 1010 4 6.437376 0.17 4.318
2:23 pm 14:23 Cloudy with Rain 75 24 70 21 83 83 SE 13 20 29.83 1010 3 4.828032 0.18 4.572
2:25 pm 14:25 Cloudy with Rain 75 24 70 21 83 83 SE 12 19 29.83 1010 3 4.828032 0.18 4.572
2:27 pm 14:27 Cloudy with Heavy Rain 75 24 70 21 83 83 SE 12 19 29.83 1010 2.5 4.02336 0.19 4.826
2:31 pm 14:31 Cloudy with Rain 75 24 70 21 83 83 SE 12 19 29.83 1010 2.5 4.02336 0.21 5.334
2:37 pm 14:37 Cloudy with Rain 75 24 70 21 83 83 SE 15 24 29.83 1010 3 4.828032 0.24 6.096
2:44 pm 14:44 Cloudy with Rain 75 24 70 21 83 83 SE 17 28 29.83 1010 3 4.828032 0 0
2:52 pm 14:52 Cloudy with Rain 75 24 70 21 83 83 SE 16 26 29.8 1009 3 4.828032 0.28 7.112
3:05 pm 15:05 Cloudy with Rain 75 24 70 21 83 83 SE 13 20 29.8 1009 2.5 4.02336 0.06 1.524
3:09 pm 15:09 Cloudy with Heavy Rain 75 24 70 21 83 83 SE 15 24 29.8 1009 2 3.218688 0.08 2.032
3:14 pm 15:14 Cloudy with Heavy Rain 75 24 72 22 89 89 ESE 12 19 29.8 1009 1 1.609344 0 0
3:19 pm 15:19 Cloudy with Heavy Rain 75 24 72 22 89 89 SE 12 19 29.8 1009 3 4.828032 0.26 6.604
3:23 pm 15:23 Cloudy with Rain 75 24 72 22 89 89 ESE 13 20 29.8 1009 4 6.437376 0.28 7.112
3:35 pm 15:35 Cloudy with Light Rain 75 24 72 22 89 89 ESE 13 20 29.77 1008 2 3.218688 0.3 7.62
3:41 pm 15:41 Cloudy with Heavy Rain 75 24 72 22 89 89 ESE 14 22 29.77 1008 3 4.828032 0.38 9.652
3:46 pm 15:46 Cloudy with Light Rain 75 24 72 22 89 89 E 10 17 29.77 1008 7 11.265408 0.39 9.906
3:50 pm 15:50 Cloudy with Heavy Rain 75 24 72 22 89 89 E 8 13 29.77 1008 2 3.218688 0.4 10.16
3:52 pm 15:52 Cloudy with Heavy Rain 75 24 72 22 89 89 E 9 15 29.77 1008 1.5 2.414016 0.42 10.668
4:01 pm 16:01 Cloudy with Heavy Rain 75 24 72 22 89 89 E 15 24 29.74 1007 2.5 4.02336 0.07 1.778
4:06 pm 16:06 Cloudy with Rain 75 24 72 22 89 89 S 8 13 29.77 1008 1.5 2.414016 0 0
4:09 pm 16:09 Cloudy with Heavy Rain 75 24 72 22 89 89 WSW 12 19 29.8 1009 0.5 0.804672 0.1 2.54
4:19 pm 16:19 Cloudy with Light Rain 75 24 72 22 89 89 W 6 9 29.77 1008 4 6.437376 0.31 7.874
4:25 pm 16:25 Cloudy with Light Rain 75 24 72 22 89 89 W 3 6 29.77 1008 6 9.656064 0.31 7.874
4:38 pm 16:38 Cloudy 77 25 72 22 83 83 SW 8 13 29.77 1008 10 16.09344 0.31 7.874
4:52 pm 16:52 Cloudy 79 26 72 22 79 79 N 3 6 29.77 1008 10 16.09344 0.32 8.128
5:52 pm 17:52 Cloudy 77 25 72 22 83 83 NNE 5 7 29.77 1008 10 16.09344 0 0
6:01 pm 18:01 Cloudy 79 26 72 22 79 79 NE 6 9 29.77 1008 10 16.09344 0 0
6:17 pm 18:17 Cloudy with Light Rain 77 25 72 22 83 83 NE 9 15 29.77 1008 10 16.09344 0.001 0.001
6:52 pm 18:52 Cloudy 73 23 70 21 89 89 NE 15 24 29.77 1008 10 16.09344 0.001 0.001
7:44 pm 19:44 Cloudy 73 23 68 20 83 83 NE 13 20 29.77 1008 10 16.09344 0 0
7:52 pm 19:52 Cloudy with Rain 73 23 68 20 83 83 NE 16 26 29.74 1007 4 6.437376 0.02 0.508
8:10 pm 20:10 Cloudy with Light Rain 72 22 68 20 88 88 NNE 9 15 29.74 1007 3 4.828032 0 0
8:22 pm 20:22 Cloudy with Heavy Rain 72 22 68 20 88 88 NNE 10 17 29.74 1007 2 3.218688 0 0
8:31 pm 20:31 Cloudy with Heavy Rain 72 22 66 19 83 83 NNE 15 24 29.74 1007 1 1.609344 0.22 5.588
8:42 pm 20:42 Cloudy with Heavy Rain 72 22 66 19 83 83 NNE 16 26 29.74 1007 1 1.609344 0 0
8:52 pm 20:52 Cloudy with Heavy Rain 72 22 68 20 88 88 NNE 14 22 29.74 1007 1.5 2.414016 0.61 15.494
8:59 pm 20:59 Cloudy with Heavy Rain 72 22 66 19 83 83 NNE 12 19 29.74 1007 1.75 2.816352 0.17 4.318
9:01 pm 21:01 Cloudy with Rain 72 22 66 19 83 83 N 10 17 29.74 1007 2.5 4.02336 0.19 4.826
9:05 pm 21:05 Cloudy with Light Rain 72 22 66 19 83 83 N 7 11 29.74 1007 4 6.437376 0.19 4.826
9:25 pm 21:25 Cloudy with Light Rain 72 22 66 19 83 83 NE 8 13 29.74 1007 9 14.484096 0.19 4.826
9:35 pm 21:35 Cloudy with Heavy Rain 72 22 66 19 83 83 NE 9 15 29.74 1007 2.5 4.02336 0.24 6.096
9:43 pm 21:43 Cloudy with Rain 72 22 66 19 83 83 NE 10 17 29.74 1007 3 4.828032 0.28 7.112
9:52 pm 21:52 Cloudy with Light Rain 72 22 66 19 83 83 NE 9 15 29.74 1007 7 11.265408 0.31 7.874
10:10 pm 22:10 Cloudy 72 22 66 19 83 83 NE 8 13 29.74 1007 7 11.265408 0 0
10:52 pm 22:52 Cloudy 72 22 66 19 83 83 NNE 7 11 29.71 1006 10 16.09344 0.001 0.001
11:52 pm 23:52 Cloudy 72 22 66 19 83 83 NNE 7 11 29.71 1006 10 16.09344 0 0

Powered by AerisWeather